Hourly Data Report for May 23, 2022

DRYDEN REGIONAL
ONTARIO
Current Station Operator: NAVCAN

49°49'39.000" N
92°44'39.000" W
412.70 m
6032125
71527
YHD

Download Data

Hourly Data (May 2022)
Hourly Data Report for May 23, 2022
TIME
LST
Temp Definition
°C
Dew Point Definition
°C
Rel Hum Definition
%
Precip. Amount Definition
mm

Wind Dir Definition
10's deg

Wind Spd Definition
km/h
Visibility Definition
km
Stn Press Definition
kPa
Hmdx Definition


Wind Chill Definition


Weather Definition


00:00 5.6 -1.6 60 0.0 21 11 16.1 97.51     LegendNANA
01:00 5.3 -1.6 61 0.0 21 11 16.1 97.50     LegendNANA
02:00 4.8 -1.4 64 0.0 20 11 16.1 97.51     LegendNANA
03:00 4.2 -1.2 68 0.0 19 13 16.1 97.52     LegendNANA
04:00 4.0 -1.4 68 0.0 19 13 16.1 97.52     LegendNANA
05:00 4.3 -0.7 70 0.0 18 15 16.1 97.51     LegendNANA
06:00 5.8 0.0 66 0.0 19 13 16.1 97.52     LegendNANA
07:00 8.0 1.0 61 0.0 17 11 16.1 97.53     LegendNANA
08:00 11.0 0.9 50 0.0 19 15 16.1 97.50     LegendNANA
09:00 13.2 0.9 43 0.0 19 21 16.1 97.44     LegendNANA
10:00 14.5 -0.3 36 0.0 21 24 16.1 97.38     LegendNANA
11:00 14.5 -1.2 34 0.0 23 28 16.1 97.32     LegendNANA
12:00 16.2 -1.1 30 0.0 22 24 16.1 97.23     LegendNANA
13:00 15.9 -1.2 31 0.0 25 21 16.1 97.21     LegendNANA
14:00 17.7 -3.3 24 0.0 23 22 16.1 97.16     LegendNANA
15:00 16.9 -1.1 29 0.0 24 28 16.1 97.13     LegendNANA
16:00 17.3 -2.2 26 0.0 25 24 16.1 97.10     LegendNANA
17:00 17.0 -1.8 27 0.0 25 24 16.1 97.06     LegendNANA
18:00 16.2 -2.7 27 0.0 24 18 16.1 97.06     LegendNANA
19:00 14.6 -1.4 33 0.0 23 15 16.1 97.06     LegendNANA
20:00 13.3 0.7 42 0.0 27 11 16.1 97.07     LegendNANA
21:00 13.1 -0.2 40 0.0 21 11 16.1 97.08     LegendNANA
22:00 12.3 -0.2 42 0.0 20 8 16.1 97.07     LegendNANA
23:00 10.6 0.4 49 0.0 20 13 16.1 97.04     LegendNANA

Notes on Data Quality.

Legend

  • E = Estimated
  • M = Missing
  • NA = Not Available*
  • [empty] = Indicates an unobserved value
Date modified: